Quakertown, PA

3:13 AM EST on November 23, 2017 (GMT -0500)
Quakertown

Weather History for KUKT - February, 2013

Change the Weather History Date:

Tuesday, February 26, 2013

  Actual Average (KABE) Record (KABE)
Temperature  
Mean Temperature 32 °F -  
Max Temperature 42 °F 40 °F 65 °F (1976)
Min Temperature 23 °F 24 °F 4 °F (1970)
Degree Days  
Heating Degree Days 32    
Moisture  
Dew Point 29 °F    
Average Humidity 77    
Maximum Humidity 100    
Minimum Humidity 57    
Precipitation  
Precipitation 0.13 in - - ()
Sea Level Pressure  
Sea Level Pressure 30.10 in    
Wind  
Wind Speed 6 mph (East)    
Max Wind Speed 18 mph    
Max Gust Speed 30 mph    
Visibility 9 miles    
Events      
Averages and records for this station are not official NWS values.
T = Trace of Precipitation, MM = Missing Value Source: NWS Daily Summary

Daily Weather History Graph

Daily Weather History Graph

Search for Another Location

Airport or City:

Trip Planner

Search our weather history database for the weather conditions in past years. The results will help you decide how hot, cold, wet, or windy it might be!

Date:

Astronomy

Feb. 26, 2013 Rise Set
Actual Time 6:39 AM EST 5:49 PM EST
Civil Twilight 6:11 AM EST 6:17 PM EST
Nautical Twilight 5:40 AM EST 6:48 PM EST
Astronomical Twilight 5:08 AM EST 7:20 PM EST
Moon 7:04 PM EST (2/26) 6:40 AM EST (2/26)
Length of Visible Light 12h 05m
Length of Day
11h 10m
Full, 99% of the Moon is Illuminated
Feb 26
Full
Mar 4
Last Quarter
Mar 11
New
Mar 19
First Quarter
Mar 27
Full

Hourly Weather History & Observations

Time (EST) Temp. Windchill Dew Point Humidity Pressure Visibility Wind Dir Wind Speed Gust Speed Precip Events Conditions
12:15 AM 24.8 °F - 21.2 °F 86% 30.20 in 10.0 mi Calm Calm - N/A   Clear
12:35 AM 24.8 °F - 23.0 °F 93% 30.22 in 7.0 mi Calm Calm - N/A   Clear
12:55 AM 23.0 °F - 23.0 °F 100% 30.24 in 8.0 mi Calm Calm - N/A   Partly Cloudy
1:15 AM 23.0 °F - 23.0 °F 100% 30.25 in 9.0 mi Calm Calm - N/A   Mostly Cloudy
1:35 AM 24.8 °F - 23.0 °F 93% 30.23 in 9.0 mi Calm Calm - N/A   Mostly Cloudy
1:55 AM 24.8 °F - 21.2 °F 86% 30.24 in 10.0 mi Calm Calm - N/A   Partly Cloudy
2:15 AM 23.0 °F - 21.2 °F 93% 30.24 in 10.0 mi Calm Calm - N/A   Clear
2:35 AM 23.0 °F - 21.2 °F 93% 30.24 in 9.0 mi Calm Calm - N/A   Clear
2:55 AM 23.0 °F - 21.2 °F 93% 30.23 in 10.0 mi Calm Calm - N/A   Clear
3:15 AM 23.0 °F - 19.4 °F 86% 30.23 in 9.0 mi Calm Calm - N/A   Clear
3:25 AM 23.0 °F - 19.4 °F 86% 30.23 in 10.0 mi Calm Calm - N/A   Clear
8:40 AM - - - N/A% 30.24 in - Calm Calm - N/A   Unknown
8:55 AM 32.0 °F 28.7 °F 28.4 °F 87% 30.24 in 10.0 mi ENE 3.5 mph - N/A   Unknown
9:35 AM 35.6 °F 32.8 °F 28.4 °F 75% 30.24 in 10.0 mi East 3.5 mph - N/A   Clear
9:55 AM 37.4 °F 32.8 °F 28.4 °F 70% 30.24 in 9.0 mi East 5.8 mph - N/A   Clear
10:15 AM 37.4 °F 33.8 °F 28.4 °F 70% 30.24 in 10.0 mi East 4.6 mph - N/A   Clear
10:35 AM 37.4 °F 32.8 °F 28.4 °F 70% 30.23 in 10.0 mi East 5.8 mph - N/A   Clear
10:55 AM 39.2 °F 33.6 °F 28.4 °F 65% 30.23 in 10.0 mi East 8.1 mph - N/A   Clear
11:15 AM 39.2 °F 34.2 °F 30.2 °F 70% 30.22 in 10.0 mi East 6.9 mph - N/A   Clear
11:35 AM 41.0 °F 37.1 °F 30.2 °F 65% 30.22 in 10.0 mi East 5.8 mph - N/A   Clear
11:55 AM 41.0 °F 34.3 °F 28.4 °F 61% 30.21 in 10.0 mi ESE 11.5 mph - N/A   Clear
12:10 PM 41.0 °F 34.7 °F 28.4 °F 61% 30.21 in 10.0 mi ESE 10.4 mph - N/A   Clear
12:35 PM 42.8 °F 36.2 °F 28.4 °F 57% 30.19 in 10.0 mi ESE 12.7 mph 19.6 mph N/A   Mostly Cloudy
12:50 PM 42.8 °F 37.0 °F 28.4 °F 57% 30.18 in 10.0 mi ESE 10.4 mph 17.3 mph N/A   Overcast
1:15 PM 42.8 °F 37.0 °F 28.4 °F 57% 30.17 in 10.0 mi ESE 10.4 mph - N/A   Overcast
1:35 PM 42.8 °F 36.6 °F 30.2 °F 61% 30.17 in 10.0 mi East 11.5 mph - N/A   Overcast
1:55 PM 42.8 °F 37.0 °F 30.2 °F 61% 30.15 in 10.0 mi East 10.4 mph 16.1 mph N/A   Overcast
2:15 PM 42.8 °F 36.6 °F 30.2 °F 61% 30.15 in 10.0 mi ESE 11.5 mph 17.3 mph N/A   Overcast
2:35 PM 42.8 °F 36.6 °F 30.2 °F 61% 30.13 in 10.0 mi ESE 11.5 mph - N/A   Mostly Cloudy
2:55 PM 41.0 °F 35.2 °F 30.2 °F 65% 30.12 in 10.0 mi East 9.2 mph - N/A   Mostly Cloudy
3:15 PM 41.0 °F 35.2 °F 30.2 °F 65% 30.11 in 10.0 mi ESE 9.2 mph 20.7 mph N/A   Overcast
3:35 PM 41.0 °F 34.7 °F 30.2 °F 65% 30.11 in 10.0 mi ESE 10.4 mph - N/A   Overcast
3:55 PM 41.0 °F 33.9 °F 30.2 °F 65% 30.10 in 10.0 mi East 12.7 mph 20.7 mph N/A   Overcast
4:15 PM 39.2 °F 31.2 °F 30.2 °F 70% 30.09 in 10.0 mi East 13.8 mph 19.6 mph N/A   Overcast
4:30 PM 39.2 °F 33.6 °F 30.2 °F 70% 30.08 in 10.0 mi East 8.1 mph 19.6 mph N/A   Mostly Cloudy
4:55 PM 39.2 °F 31.6 °F 30.2 °F 70% 30.06 in 10.0 mi East 12.7 mph 20.7 mph N/A   Mostly Cloudy
5:15 PM 39.2 °F 32.0 °F 30.2 °F 70% 30.05 in 10.0 mi East 11.5 mph 20.7 mph N/A   Mostly Cloudy
5:35 PM 39.2 °F 32.0 °F 28.4 °F 65% 30.06 in 10.0 mi East 11.5 mph 19.6 mph N/A   Overcast
5:55 PM 39.2 °F 31.2 °F 28.4 °F 65% 30.05 in 10.0 mi East 13.8 mph 23.0 mph N/A   Overcast
6:15 PM 37.4 °F 30.8 °F 30.2 °F 75% 30.04 in 10.0 mi East 9.2 mph 19.6 mph N/A   Overcast
6:35 PM 37.4 °F 28.9 °F 32.0 °F 81% 30.01 in 10.0 mi East 13.8 mph 25.3 mph N/A   Overcast
6:55 PM 37.4 °F 29.3 °F 32.0 °F 81% 30.01 in 10.0 mi East 12.7 mph 21.9 mph N/A   Overcast
7:15 PM 37.4 °F 28.9 °F 32.0 °F 81% 29.99 in 10.0 mi East 13.8 mph 23.0 mph N/A   Overcast
7:35 PM 37.4 °F 27.5 °F 32.0 °F 81% 29.97 in 10.0 mi East 18.4 mph 25.3 mph N/A   Overcast
7:55 PM 37.4 °F 27.8 °F 32.0 °F 81% 29.95 in 10.0 mi East 17.3 mph 26.5 mph N/A   Overcast
8:15 PM 35.6 °F 27.5 °F 32.0 °F 87% 29.93 in 10.0 mi East 11.5 mph 27.6 mph N/A   Overcast
8:35 PM 35.6 °F 25.9 °F 32.0 °F 87% 29.93 in 7.0 mi East 16.1 mph 25.3 mph N/A   Overcast
8:55 PM 35.6 °F 28.0 °F 32.0 °F 87% 29.94 in 10.0 mi East 10.4 mph 21.9 mph N/A   Overcast
9:15 PM 35.6 °F 26.6 °F 32.0 °F 87% 29.92 in 4.0 mi East 13.8 mph 24.2 mph N/A   Overcast
9:35 PM 35.6 °F 27.1 °F 32.0 °F 87% 29.90 in 3.0 mi ENE 12.7 mph 24.2 mph 0.03 in   Overcast
9:55 PM 35.6 °F 25.9 °F 32.0 °F 87% 29.87 in 5.0 mi ENE 16.1 mph 28.8 mph 0.03 in   Overcast
10:15 PM 35.6 °F 26.6 °F 32.0 °F 87% 29.86 in 5.0 mi ENE 13.8 mph 29.9 mph N/A   Overcast
10:35 PM 35.6 °F 26.2 °F 32.0 °F 87% 29.85 in 3.0 mi ENE 15.0 mph 26.5 mph 0.02 in   Overcast
10:55 PM 35.6 °F 27.1 °F 32.0 °F 87% 29.83 in 3.0 mi ENE 12.7 mph 25.3 mph 0.04 in   Overcast
11:15 PM 35.6 °F 28.0 °F 32.0 °F 87% 29.81 in 3.0 mi ENE 10.4 mph 20.7 mph 0.02 in   Overcast
11:35 PM 35.6 °F 28.0 °F 32.0 °F 87% 29.81 in 2.5 mi ENE 10.4 mph 21.9 mph 0.05 in   Overcast
11:55 PM 35.6 °F 28.0 °F 32.0 °F 87% 29.80 in 3.0 mi ENE 10.4 mph 25.3 mph 0.06 in   Overcast